Weather Roundup
Issued by NWS Springfield, MO

Home | Current Version | Previous Version | Text Only | Print | Product List | Glossary On
Versions: 1 2 3 4 5 6 7 8 9 10 11 12 13 14 15 16 17 18 19 20 21 22 23 24 25 26 27 28 29 30 31 32 33 34 35 36 37 38 39 40 41 42 43 44 45 46 47 48 49 50
000
NZUS99 KSGF 011659
HRRSGF

HOURLY WEATHER
NATIONAL WEATHER SERVICE SPRINGFIELD MO
1200 PM CDT WED APR 01 2015

......SGF CWA......

CITY           SKY/WX    TMP DP  RH WIND       PRES   REMARKS
SPRINGFIELD    PTSUNNY   66  55  67 S17G24    29.94R
JOPLIN         CLOUDY    63  59  87 SE12      29.91S
WEST PLAINS    CLOUDY    67  44  43 SE13G21   30.01F
ROLLA          MOSUNNY   72  38  29 S20G28    29.96F
OSAGE BEACH    MOSUNNY   72  37  28 SE14G20   29.94F
BRANSON        CLOUDY    61  55  82 SE10      29.98R

......SURROUNDING SGF CWA......

CITY           SKY/WX    TMP DP  RH WIND       PRES   REMARKS
CHANUTE        PTSUNNY   74  56  53 S18G26    29.86S
PARSONS        PTSUNNY   76  57  51 S15       29.88S
COFFEYVILLE    PTSUNNY   71  59  65 SE15      29.87S
EMPORIA        MOSUNNY   76  50  40 S18G24    29.82F
SILOAM SPRINGS CLOUDY    66  57  72 SE6       29.94F
HARRISON AR    LGT RAIN  61  60  97 S8        29.98R FOG
NEAR YELLVILLE CLOUDY    63  55  77 E9        29.96F

......KANSAS AND MISSOURI......

CITY           SKY/WX    TMP DP  RH WIND       PRES   REMARKS
KANSAS CTY INT PTSUNNY   72  52  49 S16       29.85F
DOWNTOWN KC    PTSUNNY   73  53  49 S10G18    29.85F
COLUMBIA       MOSUNNY   72  40  31 SE20G28   29.95F
SEDALIA        PTSUNNY   74  44  34 S17       29.91F
ST JOSEPH      MOSUNNY   74  50  42 S20       29.83F
ST LOUIS       PTSUNNY   72  36  26 SE18G24   30.03S
SPIRIT OF STL  MOSUNNY   72  35  25 S14G22    30.00F
KIRKSVILLE     MOSUNNY   72  38  29 S24       29.93F
WICHITA        MOSUNNY   75  52  44 S22       29.80F
TOPEKA         MOSUNNY   74  51  44 SE14      29.82F
OLATHE         PTSUNNY   72  56  57 S16       29.85F

......TENNESSEE......

CITY           SKY/WX    TMP DP  RH WIND       PRES   REMARKS
MEMPHIS        PTSUNNY   73  60  63 SE7       30.02F
NASHVILLE      PTSUNNY   71  32  23 E9        30.11F

......ARKANSAS.......

CITY           SKY/WX    TMP DP  RH WIND       PRES   REMARKS
FAYETTEVILLE   CLOUDY    70  61  73 S12       29.93F
FT SMITH       CLOUDY    73  61  65 S14       29.93F
LITTLE ROCK    CLOUDY    76  62  62 SE8       29.97F

......OKLAHOMA.......

CITY           SKY/WX    TMP DP  RH WIND       PRES   REMARKS
TULSA          CLOUDY    71  61  70 S14       29.87F
PONCA CITY     SUNNY     77  58  51 S10       29.82F
MCALESTER      CLOUDY    70  59  68 VRB6      29.88F
OKLAHOMA CITY  PTSUNNY   73  60  63 S17G25    29.85F

......IOWA............

CITY           SKY/WX    TMP DP  RH WIND       PRES   REMARKS
DES MOINES     MOSUNNY   75  37  25 S28G38    29.83F
QUAD CITIES    SUNNY     76  34  21 S10       29.92F

......ILLINOIS........

CITY           SKY/WX    TMP DP  RH WIND       PRES   REMARKS
QUINCY         PTSUNNY   72  36  26 S15G25    29.97F
CHICAGO        SUNNY     63  38  39 S8        30.02F




USA.gov is the U.S. government's official web portal to all federal, state and local government web resources and services.